CW0529 Weather Reports


time (UTC)temp
F
wind
direction
speed
knots
gust
knots
rain 1hr
in
rain 24hr
in
rain mn
in
humidity
%
barometer
mb
20260906022343 75 182 0.0 0.9 0.00 0.22 0.22 99 1034.8
20260906021840 75 180 0.0 1.7 0.00 0.22 0.22 99 1034.9
20260906021339 75 181 0.0 0.0 0.00 0.22 0.22 99 1034.8
20260906020834 75 176 1.7 1.7 0.00 0.22 0.22 99 1034.8
20260906020333 75 187 0.0 0.0 0.00 0.22 0.22 99 1034.7
20260906015828 75 188 1.7 2.6 0.00 0.22 0.22 99 1035.1
20260906015327 75 231 0.0 0.9 0.00 0.22 0.22 99 1034.8
20260906014826 75 185 0.0 0.0 0.00 0.22 0.22 99 1034.5
20260906014322 75 175 0.9 1.7 0.00 0.22 0.22 99 1034.6
20260906013818 75 188 0.0 1.7 0.00 0.22 0.22 99 1034.6
20260906013313 75 190 0.0 0.0 0.00 0.22 0.22 99 1034.7
20260906012808 75 193 0.0 0.0 0.00 0.22 0.22 99 1034.3
20260906012306 75 194 0.0 0.9 0.00 0.22 0.22 99 1034.7
20260906011758 75 196 0.0 0.0 0.00 0.22 0.22 99 1034.1
20260906011258 75 189 0.0 0.0 0.00 0.22 0.22 98 1034.3
20260906010754 75 184 0.0 0.0 0.00 0.22 0.22 98 1034.3
20260906010250 75 198 0.0 0.0 0.00 0.22 0.22 98 1034.3
20260906005744 75 187 0.0 0.9 0.00 0.22 0.22 97 1034.3
20260906005244 75 169 0.0 0.9 0.00 0.22 0.22 97 1034.3
20260906004737 75 177 0.0 1.7 0.00 0.22 0.22 97 1034.3
20260906004232 76 174 0.0 0.9 0.00 0.22 0.22 96 1034.2
20260906003727 75 193 0.0 0.0 0.00 0.22 0.22 96 1034.6
20260906003217 76 170 0.0 0.9 0.05 0.22 0.22 95 1034.5
20260906002711 76 180 0.0 0.0 0.05 0.22 0.22 94 1034.7
20260906002206 76 176 0.9 1.7 0.07 0.21 0.21 93 1034.8
20260906001702 76 188 0.9 2.6 0.12 0.21 0.21 94 1034.9
20260906001201 76 201 0.9 4.3 0.12 0.20 0.20 93 1035.2
20260906000657 77 185 0.0 5.2 0.07 0.19 0.19 94 1035.2
20260906000152 77 161 0.9 1.7 0.00 0.18 0.18 93 1035.4
20260905235651 77 174 0.9 1.7 0.00 0.18 0.18 92 1035.1
20260905235146 78 162 3.5 5.2 0.00 0.18 0.18 93 1035.3
20260905234641 77 199 0.9 2.6 0.00 0.18 0.18 92 1035.2
20260905234137 78 187 0.0 1.7 0.00 0.18 0.18 90 1034.5
20260905233632 80 125 1.7 2.6 0.78 0.18 0.18 86 1034.5
20260905233126 79 123 4.3 7.0 1.09 0.18 0.18 88 1034.1
20260905232621 81 98 2.6 13.9 0.31 0.05 0.05 84 1034.8
20260905232117 87 268 4.3 12.2 0.00 0.00 0.00 73 1034.6
20260905231617 91 98 1.7 2.6 0.00 0.00 0.00 69 1034.3
20260905231113 92 182 0.9 4.3 0.00 0.00 0.00 66 1034.2
20260905230609 92 73 2.6 4.3 0.00 0.00 0.00 65 1034.3
20260905230106 92 138 0.9 5.2 0.00 0.00 0.00 64 1034.0
20260905225600 93 157 0.9 2.6 0.00 0.00 0.00 65 1033.8
20260905225055 93 186 2.6 7.0 0.00 0.00 0.00 63 1033.9
20260905224550 93 183 0.0 1.7 0.00 0.00 0.00 64 1034.0
20260905224049 94 179 2.6 2.6 0.00 0.00 0.00 63 1034.0
20260905223547 93 171 0.0 2.6 0.00 0.00 0.00 64 1034.1
20260905223042 93 119 0.9 2.6 0.00 0.00 0.00 63 1034.0
20260905222537 93 171 0.9 0.9 0.00 0.00 0.00 63 1033.9
20260905222032 93 166 0.9 2.6 0.00 0.00 0.00 63 1033.9
20260905221529 93 154 1.7 4.3 0.00 0.00 0.00 63 1034.0
20260905221024 95 71 2.6 4.3 0.00 0.00 0.00 60 1033.9
20260905220520 96 179 0.9 2.6 0.00 0.00 0.00 56 1033.9
20260905220016 96 179 0.9 1.7 0.00 0.00 0.00 57 1034.0
20260905215510 95 182 0.9 2.6 0.00 0.00 0.00 57 1034.0
20260905215006 95 146 1.7 1.7 0.00 0.00 0.00 58 1034.1
20260905214501 95 197 0.9 1.7 0.00 0.00 0.00 57 1033.9
20260905214002 94 116 1.7 4.3 0.00 0.00 0.00 58 1033.8
20260905213458 95 161 0.9 1.7 0.00 0.00 0.00 56 1033.9
20260905212953 94 64 2.6 4.3 0.00 0.00 0.00 58 1034.0
20260905212447 93 115 0.9 2.6 0.00 0.00 0.00 59 1034.1
20260905211946 95 137 0.9 2.6 0.00 0.00 0.00 58 1034.1
20260905211442 93 180 0.0 1.7 0.00 0.00 0.00 60 1034.4
20260905210932 94 169 1.7 5.2 0.00 0.00 0.00 60 1034.2
20260905210432 96 119 0.9 5.2 0.00 0.00 0.00 58 1034.5
20260905205932 95 150 0.9 2.6 0.00 0.00 0.00 57 1034.6
20260905205427 94 192 0.0 1.7 0.00 0.00 0.00 58 1034.4
20260905204926 94 178 0.0 5.2 0.00 0.00 0.00 59 1034.7
20260905204422 97 195 4.3 7.0 0.00 0.00 0.00 57 1034.8
20260905203921 97 175 0.9 0.9 0.00 0.00 0.00 54 1034.7
20260905203417 95 191 0.0 2.6 0.00 0.00 0.00 55 1034.7
20260905202912 96 183 0.9 1.7 0.00 0.00 0.00 55 1034.8
20260905202407 96 193 0.0 1.7 0.00 0.00 0.00 52 1034.5
20260905201903 97 211 0.9 1.7 0.00 0.00 0.00 53 1034.9
20260905201358 97 227 1.7 2.6 0.00 0.00 0.00 52 1035.0
20260905200857 99 271 3.5 4.3 0.00 0.00 0.00 51 1034.6
20260905200354 98 329 1.7 2.6 0.00 0.00 0.00 50 1034.9
20260905195852 98 194 0.9 5.2 0.00 0.00 0.00 53 1034.9
20260905195347 100 177 2.6 4.3 0.00 0.00 0.00 50 1034.9
20260905194842 100 195 2.6 2.6 0.00 0.00 0.00 49 1035.2
20260905194336 100 300 2.6 4.3 0.00 0.00 0.00 49 1035.0
20260905193836 101 208 1.7 5.2 0.00 0.00 0.00 48 1035.2
20260905193331 100 190 1.7 2.6 0.00 0.00 0.00 49 1035.4
20260905192827 100 218 2.6 5.2 0.00 0.00 0.00 49 1035.2
20260905192322 99 193 0.0 4.3 0.00 0.00 0.00 50 1035.2
20260905191821 99 198 0.0 6.1 0.00 0.00 0.00 51 1035.2
20260905191320 100 251 2.6 5.2 0.00 0.00 0.00 51 1035.6
20260905190818 99 192 0.9 2.6 0.00 0.00 0.00 52 1035.5
20260905190313 99 191 0.0 6.1 0.00 0.00 0.00 52 1035.6
20260905185812 98 228 2.6 5.2 0.00 0.00 0.00 54 1035.5
20260905185307 98 210 0.0 4.3 0.00 0.00 0.00 52 1035.8
20260905184806 99 34 2.6 5.2 0.00 0.00 0.00 51 1035.8
20260905184300 100 192 0.0 1.7 0.00 0.00 0.00 49 1035.5
20260905183759 99 223 1.7 6.1 0.00 0.00 0.00 54 1035.7
20260905183254 99 252 2.6 5.2 0.00 0.00 0.00 51 1035.9
20260905182754 99 195 2.6 2.6 0.00 0.00 0.00 50 1036.0
20260905182254 99 218 0.9 2.6 0.00 0.00 0.00 53 1036.1
20260905181749 100 193 0.0 5.2 0.00 0.00 0.00 54 1036.1
20260905181248 99 203 0.9 2.6 0.00 0.00 0.00 55 1036.0
20260905180743 97 227 0.0 1.7 0.00 0.00 0.00 58 1036.2
20260905180238 95 134 0.0 1.7 0.00 0.00 0.00 61 1036.5
20260905175733 95 123 2.6 4.3 0.00 0.00 0.00 62 1036.6
20260905175227 96 184 0.9 4.3 0.00 0.00 0.00 64 1036.6
20260905174722 98 57 0.9 7.8 0.00 0.00 0.00 61 1036.5
20260905174218 98 190 0.0 2.6 0.00 0.00 0.00 60 1036.5
20260905173714 98 188 0.0 1.7 0.00 0.00 0.00 61 1036.7
20260905173210 99 188 0.0 2.6 0.00 0.00 0.00 59 1036.5
20260905172709 97 190 0.0 5.2 0.00 0.00 0.00 60 1036.6
20260905172203 97 168 3.5 7.0 0.00 0.00 0.00 58 1036.7
20260905171659 96 183 0.0 2.6 0.00 0.00 0.00 62 1036.8
20260905171155 96 195 0.0 2.6 0.00 0.00 0.00 61 1037.3
20260905170652 96 197 1.7 2.6 0.00 0.00 0.00 61 1037.1
20260905170152 96 100 0.9 1.7 0.00 0.00 0.00 62 1037.1
20260905165652 96 193 0.0 2.6 0.00 0.00 0.00 63 1037.1
20260905165147 95 177 2.6 5.2 0.00 0.00 0.00 63 1037.2
20260905164642 95 166 2.6 2.6 0.00 0.00 0.00 62 1037.3
20260905164141 95 193 0.0 0.0 0.00 0.00 0.00 63 1037.3
20260905163637 94 190 0.0 4.3 0.00 0.00 0.00 67 1037.4
20260905163134 94 155 0.0 4.3 0.00 0.00 0.00 65 1037.5
20260905162630 94 182 0.9 1.7 0.00 0.00 0.00 65 1037.5
20260905162129 93 209 1.7 2.6 0.00 0.00 0.00 67 1037.6
20260905161628 93 188 0.0 0.9 0.00 0.00 0.00 68 1037.6
20260905161126 92 176 0.0 0.9 0.00 0.00 0.00 67 1037.6
20260905160621 92 225 0.9 4.3 0.00 0.00 0.00 71 1037.5
20260905160120 92 178 0.0 1.7 0.00 0.00 0.00 70 1037.8
20260905155615 91 181 0.0 1.7 0.00 0.00 0.00 71 1037.7
20260905155108 90 191 0.0 0.9 0.00 0.00 0.00 72 1037.9
20260905154608 90 175 0.0 2.6 0.00 0.00 0.00 72 1038.0
20260905154104 91 235 1.7 1.7 0.00 0.00 0.00 72 1038.0
20260905153559 90 196 0.0 0.0 0.00 0.00 0.00 73 1038.1
20260905153054 90 187 0.0 0.0 0.00 0.00 0.00 73 1038.2
20260905152549 88 174 0.0 0.0 0.00 0.00 0.00 76 1038.2
20260905152044 88 174 0.9 2.6 0.00 0.00 0.00 77 1038.0
20260905151539 87 205 0.9 1.7 0.00 0.00 0.00 79 1038.0
20260905151034 87 194 0.0 0.9 0.00 0.00 0.00 79 1038.3
20260905150524 85 164 0.0 0.9 0.00 0.00 0.00 81 1038.3
20260905150021 85 168 1.7 2.6 0.00 0.00 0.00 82 1038.2
20260905145515 83 189 0.0 2.6 0.00 0.00 0.00 86 1038.3
20260905145015 83 186 0.0 0.9 0.00 0.00 0.00 86 1038.2
20260905144509 82 188 0.0 0.9 0.00 0.00 0.00 87 1038.2
20260905144008 82 195 0.0 0.0 0.00 0.00 0.00 88 1038.2
20260905143507 81 185 0.0 0.9 0.00 0.00 0.00 89 1038.4
20260905143002 81 185 0.0 0.9 0.00 0.00 0.00 90 1038.3
20260905142501 80 198 0.0 0.9 0.00 0.00 0.00 90 1038.4
20260905141957 80 191 0.0 1.7 0.00 0.00 0.00 91 1038.6
20260905141451 80 188 0.0 0.0 0.00 0.00 0.00 92 1038.4
20260905140948 80 190 0.0 0.9 0.00 0.00 0.00 92 1038.4
20260905140443 79 189 0.0 0.0 0.00 0.00 0.00 93 1038.5
20260905135941 79 196 0.0 0.9 0.00 0.00 0.00 93 1038.4
20260905135437 79 185 0.0 0.0 0.00 0.00 0.00 94 1038.4
20260905134927 78 171 0.0 0.0 0.00 0.00 0.00 94 1038.4
20260905134426 78 201 0.0 0.0 0.00 0.00 0.00 95 1038.3
20260905133920 78 186 0.0 0.0 0.00 0.00 0.00 96 1038.6
20260905133420 78 183 0.0 0.0 0.00 0.00 0.00 97 1038.1
20260905132920 77 184 0.0 0.0 0.00 0.00 0.00 97 1038.4
20260905132415 77 188 0.0 0.0 0.00 0.00 0.00 98 1038.3
20260905131910 77 149 0.0 1.7 0.00 0.00 0.00 99 1038.4
20260905131406 76 147 0.9 1.7 0.00 0.00 0.00 99 1038.5
20260905130906 76 179 0.0 0.9 0.00 0.00 0.00 99 1038.4
20260905130406 76 184 0.0 0.0 0.00 0.00 0.00 99 1038.6
20260905125901 76 173 0.0 0.0 0.00 0.00 0.00 99 1038.6
20260905125355 75 184 0.0 0.0 0.00 0.00 0.00 99 1038.7
20260905124851 75 174 0.0 0.0 0.00 0.00 0.00 99 1038.6
20260905124347 75 180 0.0 0.0 0.00 0.00 0.00 99 1038.7
20260905123842 75 177 0.0 0.9 0.00 0.00 0.00 99 1038.6
20260905123339 76 184 0.0 0.0 0.00 0.00 0.00 99 1038.5
20260905122838 75 183 0.0 0.0 0.00 0.00 0.00 99 1038.5
20260905122337 74 186 0.0 0.0 0.00 0.00 0.00 99 1038.3
20260905121833 74 185 0.0 0.0 0.00 0.00 0.00 99 1038.5
20260905121330 74 182 0.0 0.0 0.00 0.00 0.00 99 1038.2
20260905120828 73 186 0.0 0.0 0.00 0.00 0.00 99 1038.1
20260905120323 73 186 0.0 0.0 0.00 0.00 0.00 99 1038.2
20260905115818 73 185 0.0 0.0 0.00 0.00 0.00 99 1038.2
20260905115317 73 183 0.0 0.0 0.00 0.00 0.00 99 1038.2
20260905114812 73 185 0.0 0.0 0.00 0.00 0.00 99 1038.0
20260905114311 73 186 0.0 0.0 0.00 0.00 0.00 99 1038.0
20260905113810 72 181 0.0 0.0 0.00 0.00 0.00 99 1037.8
20260905113306 72 184 0.0 0.0 0.00 0.00 0.00 99 1037.8
20260905112801 72 185 0.0 0.0 0.00 0.00 0.00 99 1038.0
20260905112256 72 186 0.0 0.0 0.00 0.00 0.00 99 1037.9
20260905111751 72 181 0.0 0.0 0.00 0.00 0.00 99 1037.8
20260905111251 72 177 0.0 0.0 0.00 0.00 0.00 99 1037.6
20260905110750 72 184 0.0 0.0 0.00 0.00 0.00 99 1037.7
20260905110244 72 184 0.0 0.0 0.00 0.00 0.00 99 1037.5
20260905105740 72 177 0.0 0.0 0.00 0.00 0.00 99 1037.4
20260905105239 72 184 0.0 0.0 0.00 0.00 0.00 99 1037.2
20260905104734 73 182 0.0 0.0 0.00 0.00 0.00 99 1037.1
20260905104230 73 180 0.0 0.0 0.00 0.00 0.00 99 1037.2
20260905103725 73 184 0.0 0.0 0.00 0.00 0.00 99 1037.1
20260905103221 73 184 0.0 0.0 0.00 0.00 0.00 99 1037.3
20260905102716 73 183 0.0 0.0 0.00 0.00 0.00 99 1037.1
20260905102213 73 183 0.0 0.0 0.00 0.00 0.00 99 1036.9
20260905101711 73 185 0.0 0.0 0.00 0.00 0.00 99 1037.1
20260905101210 73 185 0.0 0.0 0.00 0.00 0.00 99 1037.1
20260905100706 73 184 0.0 0.0 0.00 0.00 0.00 99 1037.1
20260905100201 73 184 0.0 0.0 0.00 0.00 0.00 99 1037.1
20260905095700 73 172 0.0 0.0 0.00 0.00 0.00 99 1037.1
20260905095155 73 188 0.0 0.0 0.00 0.00 0.00 99 1037.1
20260905094650 73 191 0.0 0.0 0.00 0.00 0.00 99 1037.1
20260905094150 73 184 0.0 0.0 0.00 0.00 0.00 99 1037.3
20260905093644 74 180 0.0 0.0 0.00 0.00 0.00 99 1037.2
20260905093140 73 184 0.0 0.0 0.00 0.00 0.00 99 1036.9
20260905092640 73 190 0.0 0.0 0.00 0.00 0.00 99 1037.1
20260905092136 73 186 0.0 0.0 0.00 0.00 0.00 99 1036.9
20260905091635 73 187 0.0 0.0 0.00 0.00 0.00 99 1037.1
20260905091130 73 180 0.0 0.0 0.00 0.00 0.00 99 1036.8
20260905090624 73 185 0.0 0.0 0.00 0.00 0.00 99 1036.9
20260905090120 73 186 0.0 0.0 0.00 0.00 0.00 99 1037.1
20260905085618 73 184 0.0 0.0 0.00 0.00 0.00 99 1036.9
20260905085114 73 181 0.0 0.0 0.00 0.00 0.00 98 1036.9
20260905084613 74 184 0.0 0.0 0.00 0.00 0.00 98 1037.1
20260905084109 74 183 0.0 0.0 0.00 0.00 0.00 98 1037.2
20260905083603 74 177 0.0 0.0 0.00 0.00 0.00 98 1037.1
20260905083100 74 184 0.0 0.0 0.00 0.00 0.00 98 1036.6
20260905082554 74 184 0.0 0.0 0.00 0.00 0.00 98 1036.8
20260905082051 74 184 0.0 0.0 0.00 0.00 0.00 98 1037.1
20260905081549 74 183 0.0 0.0 0.00 0.00 0.00 98 1037.2
20260905081045 74 169 0.9 0.9 0.00 0.00 0.00 97 1036.9
20260905080544 74 169 0.0 0.0 0.00 0.00 0.00 97 1036.7
20260905080040 74 190 0.0 0.0 0.00 0.00 0.00 97 1036.9
20260905075539 75 182 0.0 0.0 0.00 0.00 0.00 97 1036.9
20260905075038 75 174 0.0 0.9 0.00 0.00 0.00 97 1036.7
20260905074532 75 186 0.9 0.9 0.00 0.00 0.00 97 1036.8
20260905074028 75 186 0.0 0.0 0.00 0.00 0.00 97 1036.7
20260905073523 75 183 0.0 0.0 0.00 0.00 0.00 97 1037.1
20260905073020 75 184 0.0 0.0 0.00 0.00 0.00 97 1036.9
20260905072518 75 186 0.0 0.0 0.00 0.00 0.00 97 1036.7
20260905072014 75 186 0.0 0.0 0.00 0.00 0.00 97 1036.7
20260905071511 75 186 0.0 0.0 0.00 0.00 0.00 97 1036.8
20260905071011 75 184 0.0 0.0 0.00 0.00 0.00 97 1037.1
20260905070506 75 184 0.0 0.0 0.00 0.00 0.00 97 1037.2
20260905070002 75 183 0.0 0.0 0.00 0.00 0.00 97 1037.2
20260905065459 75 183 0.0 0.0 0.00 0.00 0.00 97 1037.2
20260905064955 75 184 0.0 0.0 0.00 0.00 0.00 97 1037.3
20260905064450 75 184 0.0 0.0 0.00 0.00 0.00 96 1037.4
20260905063944 75 186 0.0 0.0 0.00 0.00 0.00 96 1037.3
20260905063433 75 174 0.0 0.0 0.00 0.00 0.00 96 1037.5
20260905062929 75 172 0.0 0.0 0.00 0.00 0.00 95 1037.4
20260905062424 76 185 0.0 0.0 0.00 0.00 0.00 95 1037.4
20260905061919 76 183 0.0 0.0 0.00 0.00 0.00 95 1037.5
20260905061419 76 183 0.0 0.0 0.00 0.00 0.00 95 1037.3
20260905060918 76 189 0.0 0.0 0.00 0.00 0.00 95 1037.4
20260905060415 76 189 0.0 0.0 0.00 0.00 0.00 95 1037.3
20260905055914 76 189 0.0 0.0 0.00 0.00 0.00 95 1037.3
20260905055409 76 178 0.0 0.0 0.00 0.00 0.00 95 1037.6
20260905054908 76 178 0.0 0.0 0.00 0.00 0.00 96 1037.5
20260905054405 76 182 0.0 0.0 0.00 0.00 0.00 96 1037.5
20260905053904 76 185 0.0 0.0 0.00 0.00 0.00 95 1037.4
20260905053359 76 176 0.0 0.0 0.00 0.00 0.00 95 1037.4
20260905052855 76 179 0.0 0.0 0.00 0.00 0.00 95 1037.4
20260905052354 75 180 0.0 0.0 0.00 0.00 0.00 95 1037.3
20260905051854 76 178 0.0 0.0 0.00 0.00 0.00 95 1037.3
20260905051350 76 183 0.0 0.0 0.00 0.00 0.00 95 1037.4
20260905050847 76 183 0.0 0.0 0.00 0.00 0.00 94 1037.3
20260905050342 76 184 0.0 0.0 0.00 0.00 0.00 94 1037.2
20260905045843 77 157 0.9 1.7 0.00 0.00 0.00 94 1037.4
20260905045338 77 180 0.0 0.0 0.00 0.00 0.00 93 1037.3
20260905044833 77 187 0.0 0.0 0.00 0.00 0.00 93 1037.2
20260905044328 77 185 0.0 0.0 0.00 0.00 0.00 93 1037.4
20260905043827 77 186 0.0 0.0 0.00 0.00 0.00 93 1037.3
20260905043321 77 191 0.0 0.0 0.00 0.00 0.00 93 1037.6
20260905042817 77 187 0.0 0.0 0.00 0.00 0.00 93 1037.5
20260905042316 77 186 0.0 0.0 0.00 0.00 0.00 92 1037.5
20260905041812 77 171 0.0 0.0 0.00 0.00 0.00 92 1037.5
20260905041308 78 182 0.0 0.0 0.00 0.00 0.00 91 1037.6
20260905040802 79 178 0.0 0.0 0.00 0.00 0.00 90 1037.6
20260905040301 79 181 0.0 0.0 0.00 0.00 0.00 89 1037.5
20260905035756 79 187 0.0 0.0 0.00 0.00 0.00 89 1037.7
20260905035252 79 188 0.0 0.0 0.00 0.00 0.00 88 1037.9
20260905034749 80 184 0.0 0.0 0.00 0.00 0.00 88 1037.5
20260905034248 80 188 0.0 0.0 0.00 0.00 0.00 88 1037.7
20260905033747 80 188 0.0 0.0 0.00 0.00 0.00 87 1037.7
20260905033242 80 187 0.0 0.0 0.00 0.00 0.00 87 1037.8
20260905032742 80 185 0.0 0.0 0.00 0.00 0.00 86 1037.8
20260905032237 81 187 0.0 0.0 0.00 0.00 0.00 86 1037.8
20260905031732 81 180 0.9 1.7 0.00 0.00 0.00 85 1038.1
20260905031228 80 187 0.0 0.0 0.00 0.00 0.00 85 1038.0
20260905030723 80 186 0.0 0.0 0.00 0.00 0.00 85 1037.9
20260905030218 80 184 0.0 0.0 0.00 0.00 0.00 85 1038.2
20260905025713 80 179 0.0 0.0 0.00 0.00 0.00 86 1038.1
20260905025209 80 179 0.0 0.0 0.00 0.00 0.00 86 1037.9
20260905024704 80 176 0.0 0.9 0.00 0.00 0.00 86 1037.9
20260905024200 81 185 0.0 0.0 0.00 0.00 0.00 84 1037.9
20260905023654 81 180 0.0 0.0 0.00 0.00 0.00 83 1037.9
20260905023149 82 164 0.9 0.9 0.00 0.00 0.00 81 1037.8